CW9259 Weather Reports


Display with metric or nautical units.
time (UTC)temp
F
wind
direction
speed
MPH
gust
MPH
rain 1hr
in
rain 24hr
in
rain mn
in
humidity
%
barometer
mb
20260506044602 52 126 0.0 3.0 0.02 0.28 0.08 96 1006.2
20260506043130 52 144 1.0 3.0 0.02 0.27 0.07 96 1006.3
20260506041614 52 107 3.0 7.0 0.02 0.27 0.07 96 1006.3
20260506040140 52 114 5.0 8.0 0.02 0.26 0.06 96 1006.3
20260506034601 52 119 3.0 6.0 0.02 0.30 0.06 96 1006.3
20260506033126 52 69 3.0 6.0 0.01 0.28 0.06 96 1006.5
20260506031600 52 94 1.0 4.0 0.02 0.28 0.06 96 1006.7
20260506030137 52 103 2.0 6.0 0.01 0.28 0.05 96 1007.0
20260506024606 52 119 0.0 0.0 0.01 0.28 0.05 96 1007.2
20260506023124 52 99 0.0 0.0 0.02 0.28 0.05 96 1007.3
20260506021559 52 97 0.0 0.0 0.01 0.28 0.04 96 1007.3
20260506020001 52 97 0.0 0.0 0.02 0.28 0.04 96 1007.5
20260506014613 52 97 0.0 0.0 0.02 0.28 0.04 96 1007.6
20260506013139 52 97 0.0 0.0 0.02 0.28 0.03 95 1007.7
20260506011628 52 97 0.0 0.0 0.02 0.28 0.03 95 1007.9
20260506010001 52 97 0.0 0.0 0.02 0.27 0.02 95 1008.3
20260506004606 52 97 0.0 0.0 0.01 0.26 0.02 95 1008.5
20260506003133 52 97 0.0 0.0 0.01 0.26 0.02 94 1008.7
20260506001604 53 97 0.0 0.0 0.01 0.26 0.02 94 1008.8
20260506000139 53 97 0.0 0.0 0.01 0.25 0.01 94 1009.0
20260505234608 53 97 0.0 0.0 0.01 0.25 0.01 93 1009.2
20260505233128 53 97 0.0 1.0 0.01 0.25 0.01 93 1009.1
20260505231613 53 97 1.0 3.0 0.01 0.25 0.01 93 1009.3
20260505230008 53 130 0.0 3.0 0.00 0.24 0.00 93 1009.6
20260505224600 53 130 1.0 4.0 0.00 0.24 0.24 92 1009.7
20260505223122 53 71 1.0 3.0 0.00 0.24 0.24 92 1009.5
20260505221603 53 68 0.0 0.0 0.00 0.24 0.24 92 1009.6
20260505220130 53 68 0.0 0.0 0.00 0.24 0.24 92 1009.8
20260505214559 53 68 0.0 0.0 0.00 0.24 0.24 92 1010.0
20260505213142 53 69 0.0 2.0 0.00 0.24 0.24 92 1010.0
20260505211559 53 69 0.0 1.0 0.00 0.24 0.24 92 1010.3
20260505210124 53 69 0.0 1.0 0.00 0.24 0.24 92 1010.2
20260505204602 53 68 0.0 2.0 0.00 0.24 0.24 92 1010.4
20260505203134 53 69 0.0 1.0 0.00 0.24 0.24 92 1010.3
20260505201559 53 69 1.0 3.0 0.00 0.24 0.24 92 1010.2
20260505200124 53 265 0.0 0.0 0.00 0.24 0.24 91 1010.3
20260505194619 53 265 0.0 0.0 0.00 0.26 0.24 91 1010.2
20260505193133 53 265 0.0 0.0 0.00 0.26 0.24 90 1010.1
20260505191609 53 265 0.0 0.0 0.00 0.26 0.24 90 1010.0
20260505190124 54 265 0.0 0.0 0.00 0.26 0.24 89 1009.8
20260505184558 54 265 0.0 2.0 0.00 0.32 0.24 89 1009.9
20260505183129 54 279 2.0 4.0 0.00 0.32 0.24 87 1009.8
20260505181558 54 148 1.0 2.0 0.00 0.32 0.24 88 1009.8
20260505180142 55 148 1.0 2.0 0.00 0.32 0.24 87 1009.8
20260505174600 55 148 1.0 3.0 0.00 0.39 0.24 86 1009.7
20260505173126 56 148 1.0 2.0 0.00 0.39 0.24 86 1009.7
20260505171625 56 148 1.0 3.0 0.00 0.39 0.24 85 1009.8
20260505170132 57 101 0.0 3.0 0.00 0.39 0.24 83 1009.8
20260505164606 57 327.0 255.0 0.00 0.40 0.24 82 1009.8
20260505163141 57 327.0 255.0 0.00 0.40 0.24 81 1010.0
20260505161605 58 65 3.0 9.0 0.00 0.40 0.24 81 1009.9
20260505153136 58 136 2.0 4.0 0.00 0.40 0.24 82 1010.0
20260505151601 57 123 2.0 4.0 0.00 0.40 0.24 82 1010.0
20260505150128 57 137 2.0 4.0 0.00 0.40 0.24 82 1010.1
20260505124602 56 220 0.0 4.0 0.00 0.40 0.24 84 1010.8
20260505123129 56 111 1.0 4.0 0.00 0.40 0.24 85 1010.9
20260505121627 55 126 2.0 5.0 0.00 0.40 0.24 86 1010.9
20260505120140 55 250 3.0 5.0 0.00 0.40 0.24 86 1011.0
20260505114600 54 132 0.0 4.0 0.00 0.40 0.24 86 1011.0
20260505114501 54 132 0.0 4.0 0.00 0.40 0.24 86 1011.0
20260505113122 54 141 2.0 4.0 0.00 0.40 0.24 87 1011.1
20260505111600 54 224 3.0 4.0 0.01 0.40 0.24 88 1011.1
20260505110124 54 276 3.0 4.0 0.01 0.40 0.24 87 1011.2
20260505101559 53 348 1.0 2.0 0.01 0.39 0.24 91 1011.4
20260505100140 53 355 0.0 3.0 0.02 0.39 0.24 91 1011.4
20260505094556 53 235 0.0 2.0 0.02 0.39 0.24 93 1011.3
20260505093134 52 231 1.0 2.0 0.02 0.39 0.23 93 1011.4
20260505091617 52 232 1.0 3.0 0.02 0.39 0.23 94 1011.3
20260505090124 52 136 0.0 2.0 0.02 0.38 0.22 96 1011.1
20260505084600 51 135 2.0 4.0 0.02 0.38 0.22 95 1011.2
20260505083133 51 165 0.0 2.0 0.02 0.37 0.21 95 1010.9
20260505081557 50 241 1.0 5.0 0.03 0.37 0.21 95 1010.8
20260505080122 50 193 2.0 6.0 0.03 0.36 0.20 95 1010.9
20260505074557 50 227 4.0 7.0 0.03 0.35 0.20 94 1010.7
20260505073128 51 194 3.0 7.0 0.03 0.35 0.19 94 1010.7
20260505071556 51 165 5.0 9.0 0.03 0.34 0.18 95 1010.6
20260505070138 50 129 1.0 4.0 0.03 0.33 0.17 95 1010.5
20260505064608 50 128 1.0 6.0 0.04 0.32 0.17 95 1010.5
20260505063124 50 157 0.0 2.0 0.04 0.31 0.16 94 1010.3
20260505061557 49 150 1.0 5.0 0.05 0.31 0.15 93 1010.4
20260505060131 49 130 2.0 7.0 0.04 0.28 0.13 93 1010.3
20260505054619 49 115 3.0 6.0 0.05 0.28 0.13 93 1010.3
20260505053138 49 113 1.0 4.0 0.05 0.28 0.12 93 1010.2
20260505051557 49 280 0.0 6.0 0.05 0.26 0.10 92 1010.4